[[{"header":{"parameterUnit":"m.s-1","parameterCategory":1,"la1":30.2991,"la2":30.254,"lo1":-89.0895,"lo2":-89.0444,"dy":0.0017,"dx":0.0017,"nx":28,"ny":28,"refTime":"2024-09-30T09:00:00:Z","depth":0,"parameterNumber":2,"parameterNumberName":"U-component_of_WINDS"},"data":[0,0,0,0,0,0,0,0,0,0,0,0,0,0,0,0,0,0,0,0,0,0,0,0,0,0,0,0,0,0,0,0,0,0,0,0,0,0,0,0,0,0,0,0,0,0,0,0,0,0,0,0,0,0,0,0,0,0,-0.3659,-0.3659,0,-0.3597,-0.3596,-0.3595,-0.3579,-0.358,-0.358,-0.358,-0.3513,-0.3511,-0.3509,0,0,0,0,0,0,0,0,0,0,0,0,0,-0.3759,-0.3757,-0.3659,-0.3659,-0.3658,-0.3597,-0.3596,-0.3595,-0.3579,-0.358,-0.358,-0.3581,-0.3514,-0.3511,-0.3509,0,0,0,0,0,0,0,0,0,0,0,0,0,-0.3708,-0.3756,-0.3659,-0.3643,-0.364,-0.3597,-0.3596,-0.3595,-0.3579,-0.358,-0.358,-0.3581,-0.3515,-0.3512,-0.3508,-0.3476,0,0,-0.3498,-0.3497,0,0,0,0,0,0,0,0,-0.3711,-0.3704,-0.3646,-0.3644,-0.3641,-0.3597,-0.3606,-0.3555,-0.3579,-0.3602,-0.358,-0.3581,-0.354,-0.3535,-0.3522,-0.3473,-0.347,-0.3498,-0.3496,-0.3495,-0.3494,0,0,0,0,0,0,0,-0.3714,-0.3707,-0.3634,-0.3645,-0.3642,-0.3636,-0.3629,-0.3596,-0.3568,-0.36,-0.3599,-0.3592,-0.3539,-0.3525,-0.352,-0.3469,-0.3498,-0.3495,-0.3493,-0.3492,-0.3386,-0.3385,0,0,0,0,0,0,-0.3721,-0.371,-0.3636,-0.3633,-0.3678,-0.3634,-0.3626,-0.361,-0.3569,-0.3563,-0.3592,-0.3591,-0.353,-0.3524,-0.3518,-0.3474,-0.3495,-0.3492,-0.349,-0.3387,-0.3386,-0.3385,0,0,0,0,0,0,-0.3723,-0.3715,-0.3639,-0.3671,-0.3661,-0.3631,-0.3613,-0.3609,-0.3595,-0.3562,-0.3557,-0.3583,-0.353,-0.3522,-0.3486,-0.3472,-0.349,-0.3487,-0.3388,-0.3386,-0.3385,-0.3389,0,0,0,0,0,0,-0.3726,-0.3716,-0.3705,-0.3671,-0.3659,-0.361,-0.3613,-0.3607,-0.3589,-0.3589,-0.3553,-0.3547,-0.353,-0.3491,-0.3483,-0.3467,-0.3485,-0.3389,-0.3387,-0.3385,-0.339,-0.3388,-0.3386,0,0,0,0,0,-0.373,-0.3709,-0.3705,-0.3696,-0.3645,-0.361,-0.3603,-0.3585,-0.3589,-0.3576,-0.3554,-0.3548,-0.3475,-0.3487,-0.3478,-0.3462,-0.339,-0.3388,-0.3386,-0.3391,-0.3388,-0.3386,0,0,0,0,0,0,-0.3743,-0.3705,-0.3699,-0.3667,-0.3642,-0.3607,-0.3591,-0.3583,-0.3556,-0.3556,-0.3534,-0.3526,-0.349,-0.3472,-0.3487,-0.3426,-0.3432,-0.3428,-0.3439,-0.3436,-0.3434,-0.3439,-0.3482,0,0,0,0,0,-0.3742,-0.3718,-0.3685,-0.366,-0.3647,-0.3621,-0.3605,-0.3593,-0.3565,-0.3555,-0.3531,-0.3503,-0.3472,-0.3454,-0.3425,-0.3387,-0.3377,-0.3371,-0.3369,-0.3368,-0.3364,-0.3338,-0.3334,-0.3378,-0.3378,-0.3378,0,0,-0.374,-0.3716,-0.3702,-0.3661,-0.3641,-0.3613,-0.3613,-0.3585,-0.3564,-0.355,-0.3514,-0.3495,-0.3462,-0.3423,-0.3405,-0.3408,-0.335,-0.3365,-0.3364,-0.3362,-0.3336,-0.3332,-0.3328,-0.3377,-0.3377,-0.3377,0,0,-0.3722,-0.3703,-0.3678,-0.3656,-0.3624,-0.3606,-0.36,-0.3566,-0.3552,-0.3516,-0.3503,-0.3476,-0.3427,-0.3402,-0.3384,-0.3351,-0.3343,-0.3342,-0.3333,-0.3308,-0.3304,-0.3301,-0.3286,-0.3281,-0.3339,-0.3339,-0.3339,0,-0.3724,-0.3685,-0.3666,-0.3638,-0.3618,-0.3604,-0.3576,-0.3556,-0.3516,-0.3501,-0.3504,-0.3438,-0.3416,-0.3369,-0.3361,-0.3347,-0.3337,-0.3347,-0.3306,-0.3303,-0.33,-0.3285,-0.328,-0.3339,-0.3339,-0.3339,-0.3339,0,-0.3686,-0.3658,-0.3642,-0.3602,-0.3581,-0.3554,-0.3528,-0.3508,-0.3497,-0.3478,-0.3437,-0.3409,-0.3372,-0.336,-0.3349,-0.3311,-0.3312,-0.3311,-0.3317,-0.3296,-0.3281,-0.3276,-0.3339,-0.3339,-0.3339,-0.3339,0,0,-0.3678,-0.3626,-0.362,-0.36,-0.3561,-0.3538,-0.3508,-0.3472,-0.3453,-0.3425,-0.3396,-0.3352,-0.3349,-0.3328,-0.3313,-0.3292,-0.3263,-0.3292,-0.3291,-0.3286,-0.3214,-0.3214,-0.3208,-0.3257,-0.3256,-0.3256,-0.3216,0,-0.3654,-0.3601,-0.3581,-0.3536,-0.3508,-0.3491,-0.3464,-0.3436,-0.3416,-0.3387,-0.3364,-0.3332,-0.3333,-0.3319,-0.3297,-0.3272,-0.3248,-0.3274,-0.3228,-0.3226,-0.3235,-0.3201,-0.3202,-0.3166,-0.321,-0.321,-0.3209,0,-0.362,-0.359,-0.3542,-0.3502,-0.349,-0.3466,-0.3429,-0.3403,-0.3368,-0.3355,-0.3328,-0.3314,-0.3278,-0.3285,-0.3233,-0.3251,-0.323,-0.3214,-0.3212,-0.3206,-0.3216,-0.3192,-0.3155,-0.3149,-0.3201,-0.3201,-0.3202,0,-0.3615,-0.3563,-0.3526,-0.351,-0.3464,-0.3447,-0.3426,-0.3392,-0.337,-0.3337,-0.3321,-0.3284,-0.3263,-0.3233,-0.3208,-0.3216,-0.3156,-0.3163,-0.3141,-0.3142,-0.3129,-0.313,-0.3086,-0.3119,-0.3119,-0.3119,-0.3119,0,-0.359,-0.3561,-0.3523,-0.3501,-0.3466,-0.3441,-0.3407,-0.3385,-0.3354,-0.3325,-0.3308,-0.328,-0.3249,-0.3216,-0.3196,-0.3153,-0.3144,-0.313,-0.3125,-0.3131,-0.3132,-0.3116,-0.3117,-0.3118,-0.3118,-0.3118,-0.3118,0,-0.358,-0.3554,-0.3512,-0.347,-0.3459,-0.3435,-0.3398,-0.3373,-0.3351,-0.3314,-0.3303,-0.3268,-0.3228,-0.3199,-0.3148,-0.3134,-0.3087,-0.3083,-0.3099,-0.3096,-0.3074,-0.3076,-0.3017,-0.3006,-0.3049,-0.3048,-0.3048,0,-0.3565,-0.3542,-0.3496,-0.3476,-0.3455,-0.3422,-0.3399,-0.3372,-0.3348,-0.3304,-0.3283,-0.3242,-0.3208,-0.3143,-0.3112,-0.3071,-0.3064,-0.3046,-0.3058,-0.3063,-0.306,-0.3061,-0.3056,-0.3044,-0.3044,-0.3044,-0.3043,0,-0.3541,-0.3528,-0.3496,-0.3457,-0.3429,-0.3398,-0.3366,-0.3349,-0.3316,-0.3289,-0.3247,-0.322,-0.3166,-0.3124,-0.3079,-0.3054,-0.3042,-0.304,-0.3032,-0.3037,-0.3046,-0.3037,-0.3091,-0.3041,-0.3041,-0.3042,-0.3042,-0.3042,-0.3526,-0.3503,-0.3466,-0.3429,-0.3402,-0.3371,-0.3345,-0.3318,-0.3283,-0.3237,-0.3223,-0.3179,-0.3139,-0.3077,-0.3052,-0.3015,-0.3016,-0.3005,-0.3002,-0.3,-0.2998,-0.3053,-0.3007,-0.3007,-0.3007,-0.3007,-0.3007,0,-0.3499,-0.3473,-0.3439,-0.3394,-0.3363,-0.3355,-0.3317,-0.3291,-0.3253,-0.3218,-0.3183,-0.3132,-0.309,-0.3053,-0.3008,-0.2985,-0.2977,-0.2973,-0.2974,-0.2967,-0.3002,-0.3012,-0.298,-0.298,-0.298,-0.298,-0.298,-0.298,-0.3481,-0.344,-0.3422,-0.3365,-0.3339,-0.3296,-0.3275,-0.3244,-0.3216,-0.316,-0.3124,-0.3101,-0.3063,-0.3014,-0.2973,-0.2962,-0.2945,-0.2942,-0.293,-0.2963,-0.2966,-0.2969,-0.2978,-0.2939,-0.2939,-0.2899,-0.2898,-0.2898]},{"header":{"parameterUnit":"m.s-1","parameterCategory":1,"la1":30.2991,"la2":30.254,"lo1":-89.0895,"lo2":-89.0444,"dy":0.0017,"dx":0.0017,"nx":28,"ny":28,"refTime":"2024-09-30T09:00:00:Z","depth":0,"parameterNumber":3,"parameterNumberName":"V-component_of_WINDS"},"data":[0,0,0,0,0,0,0,0,0,0,0,0,0,0,0,0,0,0,0,0,0,0,0,0,0,0,0,0,0,0,0,0,0,0,0,0,0,0,0,0,0,0,0,0,0,0,0,0,0,0,0,0,0,0,0,0,0,0,-1.7063,-1.7063,0,-1.7055,-1.7054,-1.7054,-1.7062,-1.7062,-1.7063,-1.7063,-1.7053,-1.7053,-1.7052,0,0,0,0,0,0,0,0,0,0,0,0,0,-1.7082,-1.7082,-1.7063,-1.7063,-1.7063,-1.7055,-1.7054,-1.7054,-1.7062,-1.7062,-1.7063,-1.7063,-1.7053,-1.7053,-1.7052,0,0,0,0,0,0,0,0,0,0,0,0,0,-1.7074,-1.7082,-1.7063,-1.7065,-1.7066,-1.7055,-1.7054,-1.7054,-1.7062,-1.7062,-1.7063,-1.7063,-1.7054,-1.7053,-1.7052,-1.7038,0,0,-1.705,-1.7049,0,0,0,0,0,0,0,0,-1.7074,-1.7073,-1.7065,-1.7065,-1.7065,-1.706,-1.7058,-1.7049,-1.7062,-1.7063,-1.7063,-1.7063,-1.7055,-1.7054,-1.7051,-1.7037,-1.7037,-1.7049,-1.7049,-1.7049,-1.7048,0,0,0,0,0,0,0,-1.7075,-1.7073,-1.7059,-1.7065,-1.7065,-1.7066,-1.7065,-1.7056,-1.7057,-1.7063,-1.7064,-1.7063,-1.7055,-1.7052,-1.7051,-1.7037,-1.7049,-1.7049,-1.7048,-1.7048,-1.7007,-1.7006,0,0,0,0,0,0,-1.7075,-1.7074,-1.706,-1.7059,-1.7071,-1.7065,-1.7065,-1.7061,-1.7057,-1.7056,-1.7062,-1.7063,-1.7053,-1.7052,-1.7051,-1.7032,-1.7049,-1.7048,-1.7047,-1.7007,-1.7007,-1.7006,0,0,0,0,0,0,-1.7076,-1.7074,-1.706,-1.7067,-1.7065,-1.7065,-1.706,-1.7061,-1.7058,-1.7056,-1.7056,-1.7059,-1.7054,-1.7052,-1.704,-1.7031,-1.7047,-1.7047,-1.7008,-1.7007,-1.7006,-1.6994,0,0,0,0,0,0,-1.7076,-1.7074,-1.707,-1.7067,-1.7065,-1.705,-1.706,-1.706,-1.7057,-1.7057,-1.7053,-1.7053,-1.7054,-1.7041,-1.7039,-1.7031,-1.7046,-1.7009,-1.7008,-1.7007,-1.6995,-1.6993,-1.6991,0,0,0,0,0,-1.7077,-1.7067,-1.7069,-1.7068,-1.7059,-1.705,-1.7049,-1.705,-1.7056,-1.705,-1.7049,-1.7053,-1.7033,-1.704,-1.7038,-1.7029,-1.7009,-1.7008,-1.7007,-1.6996,-1.6993,-1.6991,0,0,0,0,0,0,-1.7069,-1.7067,-1.7069,-1.7058,-1.7054,-1.7051,-1.7045,-1.7048,-1.7042,-1.7043,-1.7045,-1.7044,-1.7031,-1.7029,-1.7037,-1.7013,-1.7022,-1.702,-1.7015,-1.7012,-1.701,-1.701,-1.7045,0,0,0,0,0,-1.7066,-1.7059,-1.7058,-1.7048,-1.7045,-1.7045,-1.7042,-1.7043,-1.7039,-1.7037,-1.7035,-1.703,-1.7022,-1.7017,-1.701,-1.6995,-1.6993,-1.6988,-1.6985,-1.6984,-1.6982,-1.6971,-1.6967,-1.7002,-1.7002,-1.7002,0,0,-1.7059,-1.7057,-1.7053,-1.7046,-1.7043,-1.7035,-1.7044,-1.7036,-1.7029,-1.7036,-1.7024,-1.7022,-1.7016,-1.7002,-1.6996,-1.7,-1.6972,-1.6982,-1.6981,-1.6979,-1.6969,-1.6966,-1.6963,-1.7001,-1.7001,-1.7001,0,0,-1.7043,-1.7042,-1.7032,-1.7029,-1.7024,-1.7024,-1.7021,-1.7018,-1.7016,-1.7005,-1.7008,-1.7,-1.6988,-1.6983,-1.6979,-1.6958,-1.6961,-1.6956,-1.6944,-1.6933,-1.6931,-1.6928,-1.6918,-1.6915,-1.6954,-1.6954,-1.6954,0,-1.7036,-1.7025,-1.7027,-1.7018,-1.7013,-1.7019,-1.7008,-1.7004,-1.6997,-1.6994,-1.6999,-1.6981,-1.6978,-1.6962,-1.6956,-1.6954,-1.6949,-1.6956,-1.6931,-1.6929,-1.6926,-1.6917,-1.6913,-1.6954,-1.6954,-1.6954,-1.6954,0,-1.7014,-1.7006,-1.6999,-1.6992,-1.6987,-1.6977,-1.6976,-1.6971,-1.6972,-1.697,-1.6957,-1.6953,-1.6944,-1.6941,-1.6942,-1.6923,-1.6926,-1.6931,-1.694,-1.6922,-1.6913,-1.691,-1.6953,-1.6953,-1.6953,-1.6953,0,0,-1.6994,-1.6986,-1.6983,-1.6979,-1.6973,-1.6967,-1.6956,-1.6947,-1.6941,-1.6936,-1.6925,-1.6914,-1.6918,-1.6913,-1.6914,-1.6905,-1.6885,-1.691,-1.691,-1.6904,-1.6861,-1.6855,-1.6851,-1.6887,-1.6887,-1.6886,-1.686,0,-1.6976,-1.6958,-1.6958,-1.6941,-1.6932,-1.6936,-1.6926,-1.6921,-1.6918,-1.691,-1.6907,-1.6898,-1.6905,-1.6902,-1.6893,-1.6889,-1.6876,-1.6892,-1.6876,-1.6875,-1.6875,-1.6847,-1.6842,-1.6818,-1.6857,-1.6856,-1.6856,0,-1.6953,-1.6946,-1.6927,-1.692,-1.6917,-1.6908,-1.6898,-1.6891,-1.6884,-1.6883,-1.6876,-1.6878,-1.6865,-1.6875,-1.6856,-1.6866,-1.6859,-1.6856,-1.6855,-1.6853,-1.6863,-1.6841,-1.681,-1.6806,-1.6851,-1.6851,-1.6852,0,-1.6937,-1.6923,-1.6909,-1.6906,-1.6898,-1.6891,-1.6888,-1.6881,-1.6875,-1.6866,-1.6861,-1.6852,-1.6846,-1.6837,-1.6835,-1.6843,-1.6815,-1.6826,-1.6812,-1.6812,-1.6805,-1.6805,-1.677,-1.6804,-1.6804,-1.6804,-1.6804,0,-1.6916,-1.6904,-1.6902,-1.6893,-1.6879,-1.6879,-1.6865,-1.6861,-1.6855,-1.6844,-1.6847,-1.6837,-1.6836,-1.6825,-1.6824,-1.6806,-1.6804,-1.6801,-1.6801,-1.68,-1.68,-1.6795,-1.6795,-1.6803,-1.6803,-1.6804,-1.6804,0,-1.6896,-1.6894,-1.6879,-1.6872,-1.687,-1.686,-1.6853,-1.6844,-1.6841,-1.6828,-1.6825,-1.682,-1.6807,-1.6805,-1.679,-1.6788,-1.6767,-1.6769,-1.6769,-1.6769,-1.6754,-1.6754,-1.6713,-1.6706,-1.6746,-1.6746,-1.6746,0,-1.6882,-1.6872,-1.6864,-1.6857,-1.6853,-1.6842,-1.6835,-1.6835,-1.6827,-1.6817,-1.6808,-1.6795,-1.6785,-1.6763,-1.6758,-1.6745,-1.6746,-1.6732,-1.6744,-1.6742,-1.6742,-1.6742,-1.674,-1.6729,-1.6729,-1.6729,-1.6728,0,-1.6857,-1.6856,-1.6846,-1.6835,-1.6827,-1.6818,-1.681,-1.6804,-1.6802,-1.6793,-1.6779,-1.6771,-1.6754,-1.674,-1.6727,-1.6722,-1.6723,-1.6725,-1.672,-1.6719,-1.6718,-1.6715,-1.676,-1.6725,-1.6726,-1.6726,-1.6726,-1.6726,-1.6838,-1.6828,-1.682,-1.6809,-1.6802,-1.6794,-1.6784,-1.6779,-1.6768,-1.6755,-1.6755,-1.6739,-1.6729,-1.6712,-1.6705,-1.6692,-1.6696,-1.669,-1.6688,-1.6687,-1.6684,-1.6721,-1.669,-1.669,-1.669,-1.669,-1.669,0,-1.6811,-1.6805,-1.6794,-1.6782,-1.6772,-1.6775,-1.6765,-1.6756,-1.6743,-1.6734,-1.6723,-1.6705,-1.6691,-1.6684,-1.6669,-1.666,-1.666,-1.6656,-1.6655,-1.6653,-1.6682,-1.6686,-1.6656,-1.6656,-1.6656,-1.6656,-1.6656,-1.6656,-1.6795,-1.6779,-1.6776,-1.6756,-1.675,-1.6735,-1.6728,-1.672,-1.6712,-1.6692,-1.6681,-1.6676,-1.6667,-1.6651,-1.6637,-1.6635,-1.6628,-1.6623,-1.6621,-1.6648,-1.6652,-1.6655,-1.6659,-1.6622,-1.6622,-1.6593,-1.6593,-1.6593]}]]